| time (UTC) | temp F | wind direction | speed MPH | gust MPH | rain 1hr in | rain 24hr in | rain mn in | humidity % | barometer mb |
| 20260903192109 | 78 | 134 | 0.0 | 1.0 | 0.00 | 0.29 | 0.29 | 70 | 1012.2 |
| 20260903191108 | 78 | 134 | 0.0 | 1.0 | 0.00 | 0.29 | 0.29 | 70 | 1012.4 |
| 20260903190109 | 78 | 131 | 0.0 | 1.0 | 0.00 | 0.29 | 0.29 | 70 | 1012.5 |
| 20260903185603 | 79 | 134 | 0.0 | 3.0 | 0.00 | 0.29 | 0.29 | 70 | 1012.6 |
| 20260903184103 | 79 | 101 | 0.0 | 2.0 | 0.00 | 0.29 | 0.29 | 71 | 1012.5 |
| 20260903183100 | 80 | 134 | 0.0 | 1.0 | 0.00 | 0.29 | 0.29 | 72 | 1012.7 |
| 20260903182102 | 79 | 135 | 0.0 | 2.0 | 0.00 | 0.29 | 0.29 | 69 | 1012.7 |
| 20260903181631 | 79 | 123 | 0.0 | 2.0 | 0.00 | 0.29 | 0.29 | 69 | 1012.8 |
| 20260903180112 | 79 | 145 | 1.0 | 2.0 | 0.00 | 0.29 | 0.29 | 70 | 1012.9 |
| 20260903175100 | 80 | 110 | 0.0 | 2.0 | 0.00 | 0.29 | 0.29 | 72 | 1012.9 |
| 20260903174102 | 79 | 164 | 0.0 | 1.0 | 0.00 | 0.29 | 0.29 | 73 | 1013.0 |
| 20260903173102 | 79 | 237 | 0.0 | 1.0 | 0.00 | 0.29 | 0.29 | 72 | 1013.2 |
| 20260903172058 | 79 | 236 | 0.0 | 1.0 | 0.00 | 0.29 | 0.29 | 71 | 1013.3 |
| 20260903171055 | 78 | 236 | 0.0 | 2.0 | 0.00 | 0.29 | 0.29 | 70 | 1013.1 |
| 20260903170106 | 78 | 246 | 0.0 | 1.0 | 0.00 | 0.29 | 0.29 | 69 | 1013.3 |
| 20260903165054 | 77 | 240 | 0.0 | 2.0 | 0.00 | 0.29 | 0.29 | 66 | 1013.1 |
| 20260903164054 | 77 | 248 | 0.0 | 1.0 | 0.00 | 0.29 | 0.29 | 65 | 1013.0 |
| 20260903163055 | 76 | 261 | 0.0 | 0.0 | 0.00 | 0.29 | 0.29 | 62 | 1013.0 |
| 20260903162054 | 76 | 262 | 0.0 | 1.0 | 0.00 | 0.29 | 0.29 | 57 | 1013.0 |
| 20260903161556 | 75 | 262 | 0.0 | 0.0 | 0.00 | 0.29 | 0.29 | 54 | 1013.1 |
| 20260903160107 | 75 | 302 | 0.0 | 2.0 | 0.00 | 0.29 | 0.29 | 52 | 1013.3 |
| 20260903155047 | 74 | 249 | 0.0 | 2.0 | 0.00 | 0.29 | 0.29 | 53 | 1013.3 |
| 20260903154549 | 74 | 243 | 0.0 | 0.0 | 0.00 | 0.29 | 0.29 | 52 | 1013.6 |
| 20260903153050 | 73 | 242 | 0.0 | 2.0 | 0.00 | 0.29 | 0.29 | 53 | 1013.6 |
| 20260903152046 | 73 | 263 | 0.0 | 1.0 | 0.00 | 0.29 | 0.29 | 53 | 1013.8 |
| 20260903151049 | 73 | 255 | 0.0 | 0.0 | 0.00 | 0.29 | 0.29 | 53 | 1013.9 |
| 20260903150100 | 72 | 208 | 0.0 | 0.0 | 0.00 | 0.29 | 0.29 | 53 | 1014.1 |
| 20260903145049 | 72 | 208 | 0.0 | 0.0 | 0.00 | 0.29 | 0.29 | 54 | 1014.2 |
| 20260903144548 | 72 | 208 | 0.0 | 0.0 | 0.00 | 0.29 | 0.29 | 54 | 1014.2 |
| 20260903144203 | 71 | 208 | 0.0 | 1.0 | 0.00 | 0.29 | 0.29 | 54 | 1014.4 |
| 20260903142042 | 71 | 269 | 0.0 | 1.0 | 0.00 | 0.29 | 0.29 | 55 | 1014.8 |
| 20260903141041 | 70 | 156 | 0.0 | 0.0 | 0.01 | 0.29 | 0.29 | 55 | 1014.9 |
| 20260903140054 | 70 | 156 | 0.0 | 1.0 | 0.01 | 0.29 | 0.29 | 55 | 1014.9 |
| 20260903135041 | 70 | 153 | 0.0 | 1.0 | 0.01 | 0.29 | 0.29 | 55 | 1014.8 |
| 20260903134041 | 69 | 159 | 0.0 | 1.0 | 0.03 | 0.29 | 0.29 | 56 | 1015.0 |
| 20260903133041 | 69 | 159 | 0.0 | 1.0 | 0.04 | 0.29 | 0.29 | 56 | 1014.9 |
| 20260903132041 | 69 | 161 | 0.0 | 1.0 | 0.04 | 0.29 | 0.29 | 56 | 1014.8 |
| 20260903131041 | 68 | 161 | 0.0 | 1.0 | 0.04 | 0.28 | 0.28 | 56 | 1014.9 |
| 20260903130053 | 68 | 162 | 0.0 | 1.0 | 0.04 | 0.28 | 0.28 | 56 | 1014.8 |
| 20260903125036 | 68 | 170 | 0.0 | 1.0 | 0.06 | 0.28 | 0.28 | 56 | 1015.0 |
| 20260903124537 | 67 | 172 | 0.0 | 1.0 | 0.07 | 0.26 | 0.26 | 56 | 1015.2 |
| 20260903123035 | 67 | 163 | 0.0 | 1.0 | 0.06 | 0.25 | 0.25 | 56 | 1015.4 |
| 20260903122036 | 67 | 167 | 0.0 | 1.0 | 0.06 | 0.25 | 0.25 | 57 | 1015.4 |
| 20260903121035 | 67 | 166 | 0.0 | 1.0 | 0.05 | 0.24 | 0.24 | 57 | 1015.5 |
| 20260903120035 | 67 | 159 | 0.0 | 1.0 | 0.05 | 0.24 | 0.24 | 57 | 1015.6 |
| 20260903115035 | 67 | 149 | 0.0 | 1.0 | 0.03 | 0.22 | 0.23 | 57 | 1015.8 |
| 20260903114047 | 67 | 142 | 0.0 | 1.0 | 0.00 | 0.19 | 0.19 | 57 | 1015.7 |
| 20260903113036 | 67 | 145 | 0.0 | 1.0 | 0.00 | 0.19 | 0.19 | 57 | 1015.9 |
| 20260903112042 | 66 | 144 | 0.0 | 1.0 | 0.01 | 0.19 | 0.19 | 57 | 1016.0 |
| 20260903111030 | 66 | 139 | 0.0 | 1.0 | 0.04 | 0.19 | 0.19 | 57 | 1016.1 |
| 20260903110030 | 66 | 142 | 0.0 | 1.0 | 0.11 | 0.19 | 0.19 | 57 | 1016.1 |
| 20260903105043 | 66 | 143 | 0.0 | 1.0 | 0.14 | 0.19 | 0.19 | 58 | 1016.0 |
| 20260903104029 | 65 | 145 | 0.0 | 1.0 | 0.16 | 0.19 | 0.19 | 58 | 1015.8 |
| 20260903103030 | 65 | 142 | 0.0 | 1.0 | 0.17 | 0.19 | 0.19 | 58 | 1015.7 |
| 20260903102041 | 65 | 125 | 0.0 | 1.0 | 0.16 | 0.18 | 0.19 | 58 | 1015.8 |
| 20260903101028 | 65 | 136 | 0.0 | 1.0 | 0.13 | 0.15 | 0.16 | 58 | 1015.8 |
| 20260903100028 | 65 | 141 | 0.0 | 1.0 | 0.07 | 0.08 | 0.08 | 58 | 1016.0 |
| 20260903095023 | 65 | 139 | 0.0 | 1.0 | 0.04 | 0.05 | 0.05 | 58 | 1015.8 |
| 20260903094022 | 65 | 142 | 0.0 | 1.0 | 0.02 | 0.03 | 0.03 | 59 | 1015.9 |
| 20260903093024 | 65 | 142 | 0.0 | 0.0 | 0.01 | 0.02 | 0.03 | 59 | 1015.9 |
| 20260903092024 | 65 | 141 | 0.0 | 1.0 | 0.01 | 0.02 | 0.02 | 59 | 1015.9 |
| 20260903091024 | 65 | 141 | 0.0 | 1.0 | 0.01 | 0.01 | 0.01 | 59 | 1015.9 |
| 20260903090022 | 65 | 141 | 0.0 | 0.0 | 0.01 | 0.01 | 0.01 | 59 | 1016.3 |
| 20260903085524 | 65 | 141 | 0.0 | 0.0 | 0.01 | 0.01 | 0.01 | 59 | 1016.3 |
| 20260903084024 | 65 | 141 | 0.0 | 0.0 | 0.01 | 0.01 | 0.01 | 60 | 1016.4 |
| 20260903083524 | 64 | 141 | 0.0 | 0.0 | 0.01 | 0.01 | 0.01 | 61 | 1016.4 |
| 20260903082018 | 64 | 141 | 0.0 | 0.0 | 0.01 | 0.01 | 0.01 | 63 | 1016.5 |
| 20260903081018 | 63 | 141 | 0.0 | 0.0 | 0.00 | 0.00 | 0.00 | 65 | 1016.7 |
| 20260903080020 | 63 | 141 | 0.0 | 0.0 | 0.00 | 0.00 | 0.00 | 66 | 1017.0 |
| 20260903075018 | 63 | 143 | 0.0 | 0.0 | 0.00 | 0.00 | 0.00 | 66 | 1017.1 |
| 20260903074017 | 63 | 141 | 0.0 | 0.0 | 0.00 | 0.00 | 0.00 | 67 | 1017.0 |
| 20260903073017 | 63 | 141 | 0.0 | 0.0 | 0.00 | 0.00 | 0.00 | 67 | 1017.3 |
| 20260903072017 | 63 | 141 | 0.0 | 0.0 | 0.00 | 0.00 | 0.00 | 67 | 1017.3 |
| 20260903071017 | 63 | 141 | 0.0 | 0.0 | 0.00 | 0.00 | 0.00 | 67 | 1017.4 |
| 20260903070016 | 63 | 141 | 0.0 | 0.0 | 0.00 | 0.00 | 0.00 | 68 | 1017.7 |
| 20260903065011 | 62 | 141 | 0.0 | 1.0 | 0.00 | 0.00 | 0.00 | 67 | 1017.7 |
| 20260903064512 | 62 | 141 | 0.0 | 0.0 | 0.00 | 0.00 | 0.00 | 67 | 1018.0 |
| 20260903063011 | 62 | 141 | 0.0 | 0.0 | 0.00 | 0.00 | 0.00 | 67 | 1018.0 |
| 20260903062017 | 61 | 142 | 0.0 | 0.0 | 0.00 | 0.00 | 0.00 | 65 | 1018.5 |
| 20260903062011 | 62 | 141 | 0.0 | 1.0 | 0.00 | 0.00 | 0.00 | 66 | 1018.3 |
| 20260903060511 | 61 | 142 | 0.0 | 1.0 | 0.00 | 0.00 | 0.00 | 64 | 1018.6 |
| 20260903055011 | 61 | 142 | 0.0 | 0.0 | 0.00 | 0.00 | 0.00 | 64 | 1018.8 |
| 20260903054012 | 61 | 142 | 0.0 | 0.0 | 0.00 | 0.00 | 0.00 | 64 | 1018.7 |
| 20260903053512 | 60 | 142 | 0.0 | 0.0 | 0.00 | 0.00 | 0.00 | 63 | 1019.0 |
| 20260903052006 | 60 | 142 | 0.0 | 0.0 | 0.00 | 0.00 | 0.00 | 63 | 1019.3 |
| 20260903051519 | 60 | 142 | 0.0 | 0.0 | 0.00 | 0.00 | 0.00 | 63 | 1019.4 |
| 20260903050004 | 60 | 143 | 0.0 | 0.0 | 0.00 | 0.00 | 0.00 | 63 | 1019.5 |
| 20260903045006 | 59 | 142 | 0.0 | 0.0 | 0.00 | 0.00 | 0.00 | 63 | 1019.4 |
| 20260903044005 | 60 | 141 | 0.0 | 0.0 | 0.00 | 0.00 | 0.00 | 63 | 1019.2 |
| 20260903043005 | 60 | 141 | 0.0 | 0.0 | 0.00 | 0.00 | 0.00 | 63 | 1019.3 |
| 20260903042019 | 60 | 141 | 0.0 | 0.0 | 0.00 | 0.00 | 0.00 | 63 | 1019.3 |
| 20260903041006 | 60 | 141 | 0.0 | 0.0 | 0.00 | 0.00 | 0.00 | 63 | 1019.1 |
| 20260903040003 | 60 | 141 | 0.0 | 0.0 | 0.00 | 0.00 | 0.00 | 63 | 1019.4 |
| 20260903034958 | 60 | 141 | 0.0 | 0.0 | 0.00 | 0.00 | 0.00 | 64 | 1019.5 |
| 20260903033959 | 60 | 141 | 0.0 | 0.0 | 0.00 | 0.00 | 0.00 | 65 | 1019.4 |
| 20260903032957 | 60 | 141 | 0.0 | 0.0 | 0.00 | 0.00 | 0.00 | 65 | 1019.4 |
| 20260903031958 | 60 | 141 | 0.0 | 0.0 | 0.00 | 0.00 | 0.00 | 66 | 1019.7 |
| 20260903031458 | 60 | 141 | 0.0 | 0.0 | 0.00 | 0.00 | 0.00 | 66 | 1019.7 |
| 20260903025958 | 61 | 141 | 0.0 | 0.0 | 0.00 | 0.00 | 0.00 | 66 | 1019.8 |
| 20260903024957 | 61 | 142 | 0.0 | 0.0 | 0.00 | 0.00 | 0.00 | 67 | 1020.0 |
| 20260903024500 | 61 | 143 | 0.0 | 0.0 | 0.00 | 0.00 | 0.00 | 66 | 1019.9 |
| 20260903022957 | 61 | 141 | 0.0 | 0.0 | 0.00 | 0.00 | 0.00 | 68 | 1019.7 |
| 20260903021951 | 61 | 141 | 0.0 | 0.0 | 0.00 | 0.00 | 0.00 | 68 | 1019.8 |
| 20260903020950 | 62 | 141 | 0.0 | 0.0 | 0.00 | 0.00 | 0.00 | 69 | 1020.0 |
| 20260903015953 | 62 | 141 | 0.0 | 0.0 | 0.00 | 0.00 | 0.00 | 69 | 1019.9 |
| 20260903014950 | 62 | 141 | 0.0 | 0.0 | 0.00 | 0.00 | 0.00 | 69 | 1020.2 |
| 20260903013951 | 62 | 141 | 0.0 | 0.0 | 0.00 | 0.00 | 0.00 | 71 | 1020.2 |
| 20260903012952 | 62 | 141 | 0.0 | 0.0 | 0.00 | 0.00 | 0.00 | 72 | 1020.3 |
| 20260903011953 | 63 | 141 | 0.0 | 0.0 | 0.00 | 0.00 | 0.00 | 72 | 1020.3 |
| 20260903010952 | 63 | 141 | 0.0 | 0.0 | 0.00 | 0.00 | 0.00 | 73 | 1020.5 |
| 20260903005953 | 64 | 141 | 0.0 | 0.0 | 0.00 | 0.00 | 0.00 | 73 | 1020.6 |
| 20260903004949 | 64 | 141 | 0.0 | 0.0 | 0.00 | 0.00 | 0.00 | 75 | 1020.6 |
| 20260903004451 | 64 | 141 | 0.0 | 0.0 | 0.00 | 0.00 | 0.00 | 74 | 1020.4 |
| 20260903003451 | 64 | 141 | 0.0 | 0.0 | 0.00 | 0.00 | 0.00 | 75 | 1020.4 |
| 20260903001948 | 64 | 141 | 0.0 | 0.0 | 0.00 | 0.00 | 0.00 | 76 | 1020.7 |
| 20260903000948 | 65 | 141 | 0.0 | 0.0 | 0.00 | 0.00 | 0.00 | 76 | 1020.8 |
| 20260902235947 | 65 | 141 | 0.0 | 0.0 | 0.00 | 0.00 | 0.00 | 76 | 1020.7 |
| 20260902235450 | 65 | 141 | 0.0 | 0.0 | 0.00 | 0.00 | 0.00 | 76 | 1020.7 |
| 20260902233947 | 66 | 141 | 0.0 | 0.0 | 0.00 | 0.00 | 0.00 | 75 | 1020.8 |
| 20260902232945 | 66 | 141 | 0.0 | 0.0 | 0.00 | 0.00 | 0.00 | 74 | 1020.9 |
| 20260902232449 | 67 | 141 | 0.0 | 0.0 | 0.00 | 0.00 | 0.00 | 74 | 1020.9 |
| 20260902230954 | 68 | 141 | 0.0 | 0.0 | 0.00 | 0.00 | 0.00 | 73 | 1021.0 |
| 20260902230948 | 67 | 141 | 0.0 | 0.0 | 0.00 | 0.00 | 0.00 | 74 | 1020.8 |
| 20260902224947 | 69 | 141 | 0.0 | 0.0 | 0.00 | 0.00 | 0.00 | 72 | 1021.2 |
| 20260902223945 | 69 | 141 | 0.0 | 0.0 | 0.00 | 0.00 | 0.00 | 71 | 1021.2 |
| 20260902222947 | 70 | 141 | 0.0 | 0.0 | 0.00 | 0.00 | 0.00 | 70 | 1021.1 |
| 20260902221946 | 70 | 141 | 0.0 | 0.0 | 0.00 | 0.00 | 0.00 | 71 | 1021.1 |
| 20260902221445 | 70 | 141 | 0.0 | 2.0 | 0.00 | 0.00 | 0.00 | 73 | 1021.1 |
| 20260902215940 | 71 | 52 | 0.0 | 4.0 | 0.00 | 0.00 | 0.00 | 73 | 1021.1 |
| 20260902214944 | 71 | 52 | 0.0 | 5.0 | 0.00 | 0.01 | 0.00 | 72 | 1020.6 |
| 20260902214940 | 71 | 50 | 1.0 | 4.0 | 0.00 | 0.01 | 0.00 | 73 | 1020.8 |
| 20260902212940 | 72 | 102 | 0.0 | 4.0 | 0.00 | 0.01 | 0.00 | 71 | 1020.8 |
| 20260902211940 | 72 | 9 | 0.0 | 5.0 | 0.00 | 0.01 | 0.00 | 70 | 1021.1 |
| 20260902210939 | 73 | 88 | 0.0 | 4.0 | 0.00 | 0.01 | 0.00 | 68 | 1021.0 |
| 20260902205942 | 73 | 212 | 0.0 | 2.0 | 0.00 | 0.01 | 0.00 | 67 | 1021.0 |
| 20260902204939 | 74 | 121 | 0.0 | 1.0 | 0.00 | 0.01 | 0.00 | 63 | 1020.8 |
| 20260902203940 | 74 | 5 | 0.0 | 2.0 | 0.00 | 0.01 | 0.00 | 63 | 1021.1 |
| 20260902202934 | 74 | 119 | 0.0 | 1.0 | 0.00 | 0.01 | 0.00 | 66 | 1020.8 |
| 20260902201933 | 74 | 108 | 0.0 | 4.0 | 0.00 | 0.01 | 0.00 | 67 | 1020.9 |
| 20260902200934 | 74 | 27 | 1.0 | 7.0 | 0.00 | 0.01 | 0.00 | 67 | 1021.1 |
| 20260902195933 | 73 | 12 | 2.0 | 7.0 | 0.00 | 0.01 | 0.00 | 67 | 1021.2 |
| 20260902194933 | 73 | 70 | 2.0 | 8.0 | 0.00 | 0.01 | 0.00 | 67 | 1021.3 |
| 20260902193933 | 74 | 75 | 1.0 | 6.0 | 0.00 | 0.01 | 0.00 | 68 | 1021.3 |